Location: Unspecified
(49.2170°N, 0.0000°E)
Time: 18:41:14
(UTC+00:00)

A-11 Canister half - Visible Passes

Search period start: 25 June 2019 00:00
Search period end: 05 July 2019 00:00
Orbit: 1526 x 1683 km, 47.3° (Epoch: 24 June)

Date Brightness Start Highest point End Pass type
(mag) Time Alt. Az. Time Alt. Az. Time Alt. Az.
25 Jun 10.5 01:46:08 10° SSE 01:52:01 18° SE 01:57:51 10° E visible
26 Jun 10.5 01:25:01 10° SSE 01:30:30 17° SE 01:36:02 10° E visible
27 Jun 10.5 01:04:21 11° SSE 01:08:59 16° SE 01:14:12 10° E visible
27 Jun 9.5 03:03:13 10° SW 03:12:09 47° SSE 03:20:54 10° ENE visible
28 Jun 10.5 00:43:39 12° SSE 00:47:28 15° SE 00:52:19 10° E visible
28 Jun 9.5 02:41:55 11° SSW 02:50:35 45° SE 02:59:16 10° ENE visible
29 Jun 10.5 00:22:54 12° SE 00:25:57 14° SE 00:30:25 10° E visible
29 Jun 9.5 02:21:10 14° SSW 02:29:00 44° SE 02:37:39 10° ENE visible
30 Jun 10.5 00:02:05 12° SE 00:04:26 13° SE 00:08:25 10° E visible
30 Jun 9.5 02:00:21 16° SSW 02:07:26 42° SE 02:16:01 10° ENE visible
30 Jun 10.5 23:41:13 12° SE 23:42:55 12° SE 23:46:21 10° ESE visible
01 Jul 9.5 01:39:29 19° SSW 01:45:52 41° SE 01:54:23 10° ENE visible
01 Jul 10.6 23:20:18 11° SE 23:21:25 11° ESE 23:24:08 10° ESE visible
02 Jul 9.6 01:18:33 21° SSW 01:24:18 39° SE 01:32:45 10° ENE visible
02 Jul 10.6 22:59:18 10° SE 22:59:54 11° ESE 23:01:34 10° ESE visible
03 Jul 9.6 00:57:33 22° S 01:02:44 38° SE 01:11:08 10° ENE visible
03 Jul 9.1 02:57:19 10° WSW 03:06:51 71° SSE 03:16:08 10° E visible
04 Jul 9.6 00:36:28 24° S 00:41:10 36° SE 00:49:29 10° ENE visible
04 Jul 9.1 02:35:42 10° WSW 02:45:15 70° SSE 02:54:32 10° E visible
